Location: Newark
(41.4948°N, 13.7689°E)
Time: 01:56:47
(UTC+00:00)

Hubble Space Telescope - Visible Passes

Search period start: 09 December 2019 00:00
Search period end: 19 December 2019 00:00
Orbit: 536 x 540 km, 28.5° (Epoch: 08 December)

Date Brightness Start Highest point End Pass type
(mag) Time Alt. Az. Time Alt. Az. Time Alt. Az.
15 Dec 3.6 05:08:06 10° S 05:09:16 11° S 05:10:27 10° SSE visible
16 Dec 3.5 04:56:55 10° SSW 04:58:32 12° S 05:00:08 10° SSE visible
17 Dec 3.4 04:45:56 10° SSW 04:47:47 13° S 04:49:39 10° SSE visible
18 Dec 3.3 04:35:04 10° SSW 04:37:04 13° S 04:39:02 10° SSE visible
